Weather History for Phoenix-Mesa Gateway Airport, AZ

Change the Weather History Date:

Thursday, November 8, 2012

  Actual Average Record
Temperature  
Mean Temperature 70 °F -  
Max Temperature 84 °F 74 °F 89 °F (2005)
Min Temperature 57 °F 50 °F 37 °F (2000)
Cooling Degree Days 6    
Growing Degree Days 20 (Base 50)    
Moisture  
Dew Point 33 °F    
Average Humidity 29    
Maximum Humidity 45    
Minimum Humidity 12    
Precipitation  
Precipitation 0.00 in - - ()
Sea Level Pressure  
Sea Level Pressure 29.90 in    
Wind  
Wind Speed 6 mph (ESE)    
Max Wind Speed 12 mph    
Max Gust Speed -    
Visibility 12 miles    
Events      
Averages and records for this station are not official NWS values.
T = Trace of Precipitation, MM = Missing Value Source: NWS Daily Summary

Daily Weather History Graph

Daily Weather History Graph

Search for Another Location

Airport:

Trip Planner

Search our weather history database for the weather conditions in past years. The results will help you decide how hot, cold, wet, or windy it might be!

Date:

Astronomy

Nov. 08, 2012 Rise Set
Actual Time 6:51 AM MST 5:28 PM MST
Civil Twilight 6:25 AM MST 5:54 PM MST
Nautical Twilight 5:56 AM MST 6:24 PM MST
Astronomical Twilight 5:26 AM MST 6:53 PM MST
Moon 1:08 AM MST (11/8) 1:56 PM MST (11/8)
Length of Visible Light 11h 28m
Length of Day
10h 36m
Waning Crescent, 32% of the Moon is Illuminated
Nov 8
Waning Crescent
Nov 13
New
Nov 20
First Quarter
Nov 28
Full
Dec 6
Last Quarter

Hourly Weather History & Observations

Time (MST) Temp. Dew Point Humidity Pressure Visibility Wind Dir Wind Speed Gust Speed Precip Events Conditions
12:15 AM 60.8 °F 28.4 °F 29% 29.93 in 10.0 mi ESE 6.9 mph - N/A   Clear
12:35 AM 60.8 °F 28.4 °F 29% 29.93 in 10.0 mi ESE 5.8 mph - N/A   Clear
12:55 AM 60.8 °F 26.6 °F 27% 29.92 in 10.0 mi ESE 5.8 mph - N/A   Clear
1:15 AM 60.8 °F 26.6 °F 27% 29.92 in 10.0 mi ESE 5.8 mph - N/A   Clear
1:35 AM 60.8 °F 26.6 °F 27% 29.92 in 10.0 mi ESE 6.9 mph - N/A   Clear
1:55 AM 60.8 °F 26.6 °F 27% 29.91 in 10.0 mi ESE 6.9 mph - N/A   Clear
2:15 AM 60.8 °F 30.2 °F 31% 29.91 in 10.0 mi Calm Calm - N/A   Clear
2:35 AM 60.8 °F 28.4 °F 29% 29.91 in 10.0 mi ESE 4.6 mph - N/A   Clear
2:55 AM 60.8 °F 26.6 °F 27% 29.91 in 10.0 mi East 6.9 mph - N/A   Clear
3:15 AM 60.8 °F 26.6 °F 27% 29.90 in 10.0 mi ESE 5.8 mph - N/A   Clear
3:35 AM 62.6 °F 28.4 °F 27% 29.90 in 10.0 mi ESE 6.9 mph - N/A   Clear
3:55 AM 62.6 °F 26.6 °F 26% 29.90 in 10.0 mi ESE 6.9 mph - N/A   Clear
4:15 AM 62.6 °F 28.4 °F 27% 29.90 in 10.0 mi ESE 6.9 mph - N/A   Clear
4:35 AM 62.6 °F 26.6 °F 26% 29.90 in 10.0 mi East 6.9 mph - N/A   Clear
4:55 AM 62.6 °F 28.4 °F 27% 29.90 in 10.0 mi ESE 8.1 mph - N/A   Clear
5:15 AM 62.6 °F 28.4 °F 27% 29.90 in 10.0 mi ESE 8.1 mph - N/A   Clear
5:47 AM 60.8 °F 24.8 °F 25% 29.91 in 20.0 mi ESE 6.9 mph - N/A   Clear
6:53 AM 57.2 °F 33.8 °F 41% 29.92 in 35.0 mi ESE 4.6 mph - N/A   Mostly Cloudy
7:48 AM 59.0 °F 30.2 °F 34% 29.94 in 35.0 mi SE 4.6 mph - N/A   Mostly Cloudy
8:47 AM 64.4 °F 30.2 °F 28% 29.95 in 35.0 mi SSE 4.6 mph - N/A   Mostly Cloudy
9:47 AM 73.4 °F 32.0 °F 22% 29.95 in 35.0 mi ESE 5.8 mph - N/A   Scattered Clouds
10:50 AM 78.8 °F 28.4 °F 16% 29.96 in 35.0 mi South 4.6 mph - N/A   Scattered Clouds
11:47 AM 80.6 °F 30.2 °F 16% 29.94 in 35.0 mi Variable 4.6 mph - N/A   Scattered Clouds
12:47 PM 80.6 °F 26.6 °F 14% 29.91 in 35.0 mi WSW 5.8 mph - N/A   Scattered Clouds
1:47 PM 80.6 °F 26.6 °F 14% 29.88 in 35.0 mi SW 6.9 mph - N/A   Scattered Clouds
2:47 PM 84.2 °F 26.6 °F 12% 29.87 in 35.0 mi Variable 6.9 mph - N/A   Mostly Cloudy
3:49 PM 80.6 °F 28.4 °F 15% 29.88 in 35.0 mi SSW 4.6 mph - N/A   Mostly Cloudy
4:47 PM 80.6 °F 33.8 °F 18% 29.87 in 35.0 mi Calm Calm - N/A   Mostly Cloudy
5:47 PM 78.8 °F 35.6 °F 21% 29.89 in 20.0 mi South 11.5 mph - N/A   Overcast
6:47 PM 73.4 °F 42.8 °F 33% 29.89 in 20.0 mi Variable 3.5 mph - N/A   Overcast
7:47 PM 73.4 °F 41.0 °F 31% 29.91 in 20.0 mi Calm Calm - N/A   Overcast
7:55 PM 71.6 °F 41.0 °F 33% 29.91 in 10.0 mi Calm Calm - N/A   Clear
8:15 PM 71.6 °F 41.0 °F 33% 29.90 in 10.0 mi North 4.6 mph - N/A   Clear
8:35 PM 71.6 °F 41.0 °F 33% 29.89 in 10.0 mi North 10.4 mph - N/A   Clear
8:47 PM 73.4 °F 42.8 °F 33% 29.89 in 20.0 mi North 9.2 mph - N/A   Mostly Cloudy
8:55 PM 71.6 °F 42.8 °F 35% 29.89 in 10.0 mi North 5.8 mph - N/A   Clear
9:15 PM 69.8 °F 42.8 °F 38% 29.88 in 10.0 mi NNE 4.6 mph - N/A   Clear
9:35 PM 68.0 °F 41.0 °F 37% 29.88 in 10.0 mi ENE 3.5 mph - N/A   Clear
9:55 PM 68.0 °F 41.0 °F 37% 29.88 in 10.0 mi ENE 3.5 mph - N/A   Clear
10:15 PM 68.0 °F 41.0 °F 37% 29.89 in 10.0 mi Calm Calm - N/A   Clear
10:35 PM 68.0 °F 42.8 °F 40% 29.88 in 10.0 mi Calm Calm - N/A   Clear
10:55 PM 64.4 °F 41.0 °F 42% 29.87 in 10.0 mi East 5.8 mph - N/A   Clear
11:15 PM 62.6 °F 41.0 °F 45% 29.87 in 10.0 mi ESE 5.8 mph - N/A   Clear
11:35 PM 62.6 °F 41.0 °F 45% 29.87 in 10.0 mi East 8.1 mph - N/A   Clear
11:55 PM 62.6 °F 39.2 °F 42% 29.87 in 10.0 mi ESE 6.9 mph - N/A   Clear